Forside
METAR-TAF:

METAR-TAF

Lufthavne :

Chicago Executive Airport

Wheeling / Prospect Heights, Illinois, USA

Breddekreds: 42-07-15N, længdekreds: 087-54-17W, højde: 197 m

Aktuelle vejr

Denne rapport blev lavet for 5 timer og 59 minutter siden, kl. 03:52 UTC
Vind stille
Temperatur 18°C
Fugtighed 73%
Tryk 1021 hPa
Sigt: 16.1 km
skyfri

METAR: KPWK 310352Z AUTO 00000KT 10SM CLR 18/13 A3014 RMK AO2 SLP203 T01780133 $

Tid: 04:51 (09:51 UTC)


TAF: fraværende

Vejrobservationer og prognoser fra mere end 4000 lufthavne (METAR og TAF).

De gule og røde prikker repræsenterer de meteorologiske stationer.

Flyt musen over at se navnet på stationen.

Så klik over at se vejr observationer og prognoser.

At skifte det kort: Klik på de grønne knapper med et sort kors for at zoome ind; på den grønne knap med en bindestreg for at zoome ud; eller på de grønne pile for tilstødende kort.


METAR-TAF: